KMSY Airport Information

Runway Information
Runway 01 Length 7001 ft width 150 ft
Elevation 3 ft Threshold 0 ft Heading 15
Runway 19 Length 7001 ft Width 150 ft
Elevation 0 ft Threshold 0 ft Heading 195
Runway 06 Length 3570 ft width 150 ft
Elevation 2 ft Threshold 0 ft Heading 60
Runway 24 Length 3570 ft Width 150 ft
Elevation 1 ft Threshold 0 ft Heading 240
Runway 10 Length 10104 ft width 150 ft
Elevation 4 ft Threshold 0 ft Heading 106
Runway 28 Length 10104 ft Width 150 ft
Elevation 2 ft Threshold 304 ft Heading 286
Airport Frequencies
Type A/D Name NEW ORLEAN Frequency 123.85 MHZ
Type ATIS Name ATIS Frequency 127.55 MHZ
Type CLD Name CLNC DEL Frequency 127.2 MHZ
Type GND Name GND Frequency 121.9 MHZ
Type TWR Name TWR Frequency 119.5 MHZ
Type UNIC Name UNICOM Frequency 122.95 MHZ
Airport Navaids
Type NDB Name Kinte Frequency 338 KHZ
Airport Weather Information & NOTAM
ADDS - METARS form results

(1137 UTC 21 April 2018)
 
METAR text: KMSY 211053Z 07004KT 10SM SCT190 15/11 A3010 RMK AO2 SLP196 T01500111
Conditions at: KMSY (NEW ORLEANS/INTL, LA, US) observed 1053 UTC 21 April 2018
Temperature: 15.0°C (59°F)
Dewpoint: 11.1°C (52°F) [RH = 77%]
Pressure (altimeter): 30.10 inches Hg (1019.4 mb)
[Sea-level pressure: 1019.6 mb]
Winds: from the ENE (70 degrees) at 5 MPH (4 knots; 2.1 m/s)
Visibility: 10 or more miles (16+ km)
Ceiling: at least 12,000 feet AGL
Clouds: scattered clouds at 19000 feet AGL
Weather: no significant weather observed at this time